PP5MEL-5 Weather Reports


time (UTC)temp
F
wind
direction
speed
knots
gust
knots
rain 1hr
in
rain 24hr
in
rain mn
in
humidity
%
barometer
mb
20260507192108 86 45 0.0 0.0 0.00 0.00 0.00 50 1006.8
20260507191558 86 45 0.0 0.0 0.00 0.00 0.00 49 1006.8
20260507191047 86 45 0.0 0.0 0.00 0.00 0.00 49 1006.8
20260507185012 86 45 0.0 0.0 0.00 0.00 0.00 49 1006.8
20260507184501 86 45 0.0 0.0 0.00 0.00 0.00 48 1006.7
20260507180909 86 45 0.0 0.0 0.00 0.00 0.00 47 1006.7
20260507180359 86 45 0.0 0.0 0.00 0.00 0.00 47 1006.8
20260507175848 86 45 0.0 0.0 0.00 0.00 0.00 46 1006.8
20260507175338 86 45 0.0 0.0 0.00 0.00 0.00 46 1006.7
20260507174827 86 45 0.0 0.0 0.00 0.00 0.00 46 1006.8
20260507174316 86 45 0.0 0.0 0.00 0.00 0.00 45 1006.8
20260507173806 86 45 0.0 0.0 0.00 0.00 0.00 44 1006.9
20260507173255 86 45 0.0 0.0 0.00 0.00 0.00 44 1006.9
20260507172744 86 45 0.9 0.0 0.00 0.00 0.00 43 1007.0
20260507172234 86 45 1.7 0.0 0.00 0.00 0.00 43 1007.0
20260507171723 86 45 4.3 0.0 0.00 0.00 0.00 43 1007.0
20260507171212 86 45 10.4 0.0 0.00 0.00 0.00 42 1007.1
20260507170702 86 69 10.4 0.0 0.00 0.00 0.00 42 1007.2
20260507170152 86 45 24.3 0.0 0.00 0.00 0.00 42 1007.2
20260507165641 86 72 13.0 0.0 0.00 0.00 0.00 42 1007.3
20260507165131 86 45 34.8 0.0 0.00 0.00 0.00 42 1007.3
20260507164621 86 49 28.7 0.0 0.00 0.00 0.00 43 1007.5
20260507164110 85 53 33.9 0.0 0.00 0.00 0.00 44 1007.5
20260507163600 85 108 23.5 0.0 0.00 0.00 0.00 44 1007.5
20260507163049 85 45 29.5 0.0 0.00 0.00 0.00 44 1007.7
20260507162538 85 147 23.5 0.0 0.00 0.00 0.00 44 1007.7
20260507162027 85 189 14.8 0.0 0.00 0.00 0.00 44 1007.8
20260507161517 84 51 24.3 0.0 0.00 0.00 0.00 45 1007.9
20260507161007 84 60 28.7 0.0 0.00 0.00 0.00 45 1008.1
20260507160457 84 57 24.3 0.0 0.00 0.00 0.00 46 1008.2
20260507155946 84 48 18.2 0.0 0.00 0.00 0.00 45 1008.4
20260507155436 84 63 34.8 0.0 0.00 0.00 0.00 46 1008.5
20260507154925 84 62 34.8 0.0 0.00 0.00 0.00 46 1008.5
20260507154414 84 50 34.8 0.0 0.00 0.00 0.00 46 1008.7
20260507153904 84 67 29.5 0.0 0.00 0.00 0.00 46 1009.0
20260507153354 84 49 26.9 0.0 0.00 0.00 0.00 47 1009.1
20260507152844 84 104 20.0 0.0 0.00 0.00 0.00 47 1009.3
20260507152333 83 45 19.1 0.0 0.00 0.00 0.00 47 1009.5
20260507151823 83 45 21.7 0.0 0.00 0.00 0.00 48 1009.7
20260507151312 83 45 7.8 0.0 0.00 0.00 0.00 48 1009.8
20260507150802 83 123 3.5 0.0 0.00 0.00 0.00 48 1010.0
20260507150252 82 73 19.1 0.0 0.00 0.00 0.00 49 1010.3
20260507145741 82 93 8.7 0.0 0.00 0.00 0.00 49 1010.4
20260507145231 82 93 10.4 0.0 0.00 0.00 0.00 49 1010.5
20260507144720 82 45 6.1 0.0 0.00 0.00 0.00 50 1010.6
20260507144209 82 45 8.7 0.0 0.00 0.00 0.00 50 1010.8
20260507143659 82 45 7.8 0.0 0.00 0.00 0.00 50 1011.0
20260507143148 82 52 13.9 0.0 0.00 0.00 0.00 50 1011.1
20260507142637 81 45 19.1 0.0 0.00 0.00 0.00 51 1011.3
20260507142126 81 75 8.7 0.0 0.00 0.00 0.00 52 1011.3
20260507141616 81 45 0.0 0.0 0.00 0.00 0.00 52 1011.4
20260507141106 81 45 7.0 0.0 0.00 0.00 0.00 53 1011.6
20260507140556 81 261 0.0 0.0 0.00 0.00 0.00 53 1011.7
20260507140045 81 299 0.0 0.0 0.00 0.00 0.00 54 1011.8
20260507135535 80 284 0.9 0.0 0.00 0.00 0.00 54 1011.9
20260507135024 80 284 0.0 0.0 0.00 0.00 0.00 54 1011.9
20260507134514 80 284 6.1 0.0 0.00 0.00 0.00 55 1011.9
20260507134003 80 284 0.9 0.0 0.00 0.00 0.00 55 1011.9
20260507133452 80 284 5.2 0.0 0.00 0.00 0.00 55 1012.1
20260507132942 79 284 0.0 0.0 0.00 0.00 0.00 55 1012.2
20260507132431 79 286 0.0 0.0 0.00 0.00 0.00 55 1012.4
20260507131921 79 243 2.6 0.0 0.00 0.00 0.00 55 1012.5
20260507131410 79 81 11.3 0.0 0.00 0.00 0.00 55 1012.4
20260507130900 79 134 13.0 0.0 0.00 0.00 0.00 55 1012.5
20260507130349 79 279 7.0 0.0 0.00 0.00 0.00 55 1012.7
20260507125839 79 49 10.4 0.0 0.00 0.00 0.00 55 1012.7
20260507125328 79 45 13.0 0.0 0.00 0.00 0.00 55 1012.8
20260507124817 78 45 13.0 0.0 0.00 0.00 0.00 56 1013.0
20260507124307 78 191 7.8 0.0 0.00 0.00 0.00 56 1013.1
20260507123756 78 263 0.9 0.0 0.00 0.00 0.00 56 1013.2
20260507123245 78 55 0.0 0.0 0.00 0.00 0.00 56 1013.3
20260507122735 78 45 0.0 0.0 0.00 0.00 0.00 56 1013.3
20260507122225 78 45 0.0 0.0 0.00 0.00 0.00 56 1013.4
20260507121715 77 45 0.0 0.0 0.00 0.00 0.00 56 1013.5
20260507121204 77 45 0.0 0.0 0.00 0.00 0.00 56 1013.7
20260507120654 77 45 0.0 0.0 0.00 0.00 0.00 56 1013.7
20260507120143 77 45 0.0 0.0 0.00 0.00 0.00 56 1013.7
20260507115126 77 45 0.0 0.0 0.00 0.00 0.00 56 1013.8
20260507114616 77 45 0.0 0.0 0.00 0.00 0.00 56 1013.9
20260507114105 77 45 0.0 0.0 0.00 0.00 0.00 56 1013.9
20260507113555 77 45 0.0 0.0 0.00 0.00 0.00 56 1013.9
20260507113044 77 45 0.0 0.0 0.00 0.00 0.00 56 1013.9
20260507112533 77 45 0.0 0.0 0.00 0.00 0.00 56 1013.8
20260507112022 77 45 0.0 0.0 0.00 0.00 0.00 56 1013.9
20260507111512 76 45 0.0 0.0 0.00 0.00 0.00 56 1013.9
20260507111001 76 45 0.0 0.0 0.00 0.00 0.00 56 1013.9
20260507105430 76 45 0.0 0.0 0.00 0.00 0.00 56 1013.8
20260507104918 76 45 0.0 0.0 0.00 0.00 0.00 56 1013.8
20260507104354 76 45 0.0 0.0 0.00 0.00 0.00 56 1013.7
20260507103844 76 45 4.3 0.0 0.00 0.00 0.00 56 1013.7
20260507103334 76 45 0.0 0.0 0.00 0.00 0.00 56 1013.6
20260507102823 76 45 8.7 0.0 0.00 0.00 0.00 56 1013.7
20260507102313 76 45 1.7 0.0 0.00 0.00 0.00 56 1013.7
20260507101802 77 45 18.2 0.0 0.00 0.00 0.00 56 1013.7
20260507101252 77 45 0.0 0.0 0.00 0.00 0.00 56 1013.7
20260507100741 77 45 0.0 0.0 0.00 0.00 0.00 56 1013.8
20260507100231 77 45 0.9 0.0 0.00 0.00 0.00 56 1013.8
20260507095719 77 45 0.0 0.0 0.00 0.00 0.00 56 1013.8
20260507095209 77 45 0.0 0.0 0.00 0.00 0.00 56 1013.8
20260507094658 77 45 0.0 0.0 0.00 0.00 0.00 56 1013.7
20260507094147 77 45 0.0 0.0 0.00 0.00 0.00 56 1013.6
20260507093637 77 45 1.7 0.0 0.00 0.00 0.00 56 1013.7
20260507093126 77 45 0.0 0.0 0.00 0.00 0.00 56 1013.4
20260507092615 77 45 0.0 0.0 0.00 0.00 0.00 56 1013.6
20260507092105 77 45 0.0 0.0 0.00 0.00 0.00 56 1013.6
20260507091555 77 45 0.0 0.0 0.00 0.00 0.00 56 1013.6
20260507091044 77 45 0.0 0.0 0.00 0.00 0.00 56 1013.5
20260507090533 77 45 0.9 0.0 0.00 0.00 0.00 56 1013.5
20260507090023 77 45 2.6 0.0 0.00 0.00 0.00 56 1013.6
20260507085513 77 45 15.6 0.0 0.00 0.00 0.00 56 1013.6
20260507085003 77 45 21.7 0.0 0.00 0.00 0.00 56 1013.6
20260507084452 77 45 16.5 0.0 0.00 0.00 0.00 56 1013.7
20260507083942 77 45 23.5 0.0 0.00 0.00 0.00 55 1013.7
20260507083432 77 45 23.5 0.0 0.00 0.00 0.00 55 1013.6
20260507082922 77 45 11.3 0.0 0.00 0.00 0.00 55 1013.7
20260507082411 77 45 26.1 0.0 0.00 0.00 0.00 55 1013.7
20260507081901 77 45 26.9 0.0 0.00 0.00 0.00 55 1013.6
20260507081351 77 45 16.5 0.0 0.00 0.00 0.00 55 1013.7
20260507080841 77 45 16.5 0.0 0.00 0.00 0.00 55 1013.7
20260507080331 77 45 17.4 0.0 0.00 0.00 0.00 55 1013.7
20260507075820 77 45 11.3 0.0 0.00 0.00 0.00 55 1013.6
20260507075310 77 45 0.0 0.0 0.00 0.00 0.00 55 1013.5
20260507074800 77 45 6.1 0.0 0.00 0.00 0.00 55 1013.5
20260507074250 78 45 6.1 0.0 0.00 0.00 0.00 55 1013.5
20260507073740 78 45 0.9 0.0 0.00 0.00 0.00 55 1013.5
20260507073229 78 45 4.3 0.0 0.00 0.00 0.00 55 1013.6
20260507072718 78 45 2.6 0.0 0.00 0.00 0.00 55 1013.7
20260507072207 78 45 7.8 0.0 0.00 0.00 0.00 55 1013.7
20260507071657 78 45 12.2 0.0 0.00 0.00 0.00 55 1013.8
20260507071147 78 45 0.0 0.0 0.00 0.00 0.00 55 1013.8
20260507070636 78 45 11.3 0.0 0.00 0.00 0.00 55 1013.7
20260507070126 78 45 4.3 0.0 0.00 0.00 0.00 55 1013.8
20260507065615 78 45 10.4 0.0 0.00 0.00 0.00 55 1013.8
20260507065105 78 45 5.2 0.0 0.00 0.00 0.00 55 1013.9
20260507064554 78 45 0.0 0.0 0.00 0.00 0.00 55 1013.9
20260507064044 78 45 0.0 0.0 0.00 0.00 0.00 55 1014.0
20260507063534 78 45 0.0 0.0 0.00 0.00 0.00 55 1014.0
20260507063024 78 45 0.0 0.0 0.00 0.00 0.00 55 1014.0
20260507062513 78 45 0.0 0.0 0.00 0.00 0.00 55 1014.0
20260507062003 78 45 0.0 0.0 0.00 0.00 0.00 55 1014.1
20260507061452 78 45 2.6 0.0 0.00 0.00 0.00 55 1014.3
20260507060941 78 45 0.0 0.0 0.00 0.00 0.00 55 1014.3
20260507060431 78 45 0.0 0.0 0.00 0.00 0.00 55 1014.4
20260507055920 78 55 12.2 0.0 0.00 0.00 0.00 55 1014.4
20260507055409 78 62 18.2 0.0 0.00 0.00 0.00 55 1014.5
20260507054859 78 45 19.1 0.0 0.00 0.00 0.00 55 1014.7
20260507054348 78 45 13.9 0.0 0.00 0.00 0.00 55 1014.8
20260507053837 78 45 23.5 0.0 0.00 0.00 0.00 55 1014.8
20260507053327 79 45 23.5 0.0 0.00 0.00 0.00 55 1014.8
20260507052817 79 45 20.9 0.0 0.00 0.00 0.00 55 1014.9
20260507052307 79 62 26.9 0.0 0.00 0.00 0.00 55 1014.9
20260507051756 79 45 20.9 0.0 0.00 0.00 0.00 55 1015.1
20260507051246 79 45 20.0 0.0 0.00 0.00 0.00 55 1015.1
20260507050736 79 45 27.8 0.0 0.00 0.00 0.00 55 1015.3
20260507050225 79 48 29.5 0.0 0.00 0.00 0.00 54 1015.3
20260507045715 79 45 32.2 0.0 0.00 0.00 0.00 54 1015.3
20260507045205 79 45 30.4 0.0 0.00 0.00 0.00 54 1015.5
20260507044654 79 45 29.5 0.0 0.00 0.00 0.00 54 1015.6
20260507044144 79 45 21.7 0.0 0.00 0.00 0.00 54 1015.7
20260507043633 79 45 22.6 0.0 0.00 0.00 0.00 54 1015.9
20260507043123 79 45 25.2 0.0 0.00 0.00 0.00 54 1015.9
20260507042558 79 45 13.9 0.0 0.00 0.00 0.00 54 1015.9
20260507042047 79 45 13.9 0.0 0.00 0.00 0.00 54 1015.9
20260507041537 79 45 15.6 0.0 0.00 0.00 0.00 54 1015.9
20260507041026 79 45 17.4 0.0 0.00 0.00 0.00 54 1016.0
20260507040516 79 45 20.0 0.0 0.00 0.00 0.00 54 1016.0
20260507040005 79 45 13.9 0.0 0.00 0.00 0.00 54 1016.0
20260507035455 79 45 26.9 0.0 0.00 0.00 0.00 54 1016.0
20260507034943 79 45 21.7 0.0 0.00 0.00 0.00 54 1016.1
20260507034434 79 45 28.7 0.0 0.00 0.00 0.00 54 1016.1
20260507033923 80 45 19.1 0.0 0.00 0.00 0.00 54 1016.2
20260507033413 80 45 26.9 0.0 0.00 0.00 0.00 54 1016.2
20260507032904 80 48 26.9 0.0 0.00 0.00 0.00 54 1016.1
20260507032354 80 45 24.3 0.0 0.00 0.00 0.00 54 1016.1
20260507031843 80 45 22.6 0.0 0.00 0.00 0.00 54 1016.2
20260507031333 80 45 22.6 0.0 0.00 0.00 0.00 54 1016.2
20260507030315 80 45 26.1 0.0 0.00 0.00 0.00 54 1016.2
20260507025805 80 45 22.6 0.0 0.00 0.00 0.00 54 1016.3
20260507025254 80 45 27.8 0.0 0.00 0.00 0.00 54 1016.3
20260507024743 80 45 31.3 0.0 0.00 0.00 0.00 54 1016.4
20260507024232 80 45 32.2 0.0 0.00 0.00 0.00 54 1016.5
20260507023722 80 45 29.5 0.0 0.00 0.00 0.00 54 1016.5
20260507023211 80 45 29.5 0.0 0.00 0.00 0.00 54 1016.4
20260507022700 80 45 31.3 0.0 0.00 0.00 0.00 54 1016.5
20260507022150 80 45 25.2 0.0 0.00 0.00 0.00 54 1016.6
20260507021639 81 45 20.0 0.0 0.00 0.00 0.00 54 1016.7
20260507021128 81 45 22.6 0.0 0.00 0.00 0.00 54 1016.6
20260507020618 81 45 24.3 0.0 0.00 0.00 0.00 54 1016.7
20260507020108 81 45 17.4 0.0 0.00 0.00 0.00 54 1016.8
20260507015558 81 45 17.4 0.0 0.00 0.00 0.00 54 1016.8
20260507015048 81 45 23.5 0.0 0.00 0.00 0.00 54 1016.8
20260507014538 81 45 19.1 0.0 0.00 0.00 0.00 54 1016.7
20260507014028 81 45 14.8 0.0 0.00 0.00 0.00 54 1016.7
20260507013517 81 56 20.0 0.0 0.00 0.00 0.00 54 1016.8
20260507013007 81 45 18.2 0.0 0.00 0.00 0.00 54 1016.8
20260507012458 81 45 10.4 0.0 0.00 0.00 0.00 54 1016.9
20260507011947 81 45 19.1 0.0 0.00 0.00 0.00 54 1016.8
20260507011437 81 45 13.9 0.0 0.00 0.00 0.00 54 1016.8
20260507010927 81 45 17.4 0.0 0.00 0.00 0.00 54 1016.8
20260507010416 82 45 13.9 0.0 0.00 0.00 0.00 54 1016.8
20260507005906 82 45 22.6 0.0 0.00 0.00 0.00 54 1016.9
20260507005356 82 45 10.4 0.0 0.00 0.00 0.00 54 1016.8
20260507004845 82 45 7.0 0.0 0.00 0.00 0.00 54 1016.9
20260507004335 82 45 3.5 0.0 0.00 0.00 0.00 54 1016.9
20260507003825 82 45 0.0 0.0 0.00 0.00 0.00 54 1016.9
20260507003314 82 45 13.0 0.0 0.00 0.00 0.00 54 1017.0
20260507002804 82 45 13.9 0.0 0.00 0.00 0.00 54 1017.0
20260507002254 82 45 12.2 0.0 0.00 0.00 0.00 54 1017.1
20260507001743 82 45 6.1 0.0 0.00 0.00 0.00 54 1017.1
20260507001233 82 45 9.6 0.0 0.00 0.00 0.00 54 1017.0
20260507000723 82 45 11.3 0.0 0.00 0.00 0.00 54 1017.0
20260507000212 82 45 10.4 0.0 0.00 0.00 0.00 54 1017.0
20260506235702 83 45 2.6 0.0 0.00 0.00 0.00 54 1017.1
20260506235152 83 45 0.9 0.0 0.00 0.00 0.00 55 1017.0
20260506234641 83 45 0.0 0.0 0.00 0.00 0.00 55 1017.1
20260506234131 83 45 0.0 0.0 0.00 0.00 0.00 55 1017.2
20260506233620 83 45 0.0 0.0 0.00 0.00 0.00 55 1017.3
20260506233110 83 45 0.0 0.0 0.00 0.00 0.00 55 1017.2
20260506232600 83 45 0.0 0.0 0.00 0.00 0.00 55 1017.2
20260506232050 83 45 0.0 0.0 0.00 0.00 0.00 55 1017.2
20260506231539 83 45 0.0 0.0 0.00 0.00 0.00 55 1017.2
20260506231029 83 45 0.0 0.0 0.00 0.00 0.00 55 1017.3
20260506230518 83 45 0.0 0.0 0.00 0.00 0.00 55 1017.2
20260506230008 83 45 0.0 0.0 0.00 0.00 0.00 55 1017.2
20260506225457 83 45 0.0 0.0 0.00 0.00 0.00 55 1017.2
20260506224947 83 45 0.0 0.0 0.00 0.00 0.00 55 1017.2
20260506224436 83 45 0.0 0.0 0.00 0.00 0.00 55 1017.2
20260506223925 83 45 0.0 0.0 0.00 0.00 0.00 55 1017.1
20260506223415 83 45 0.0 0.0 0.00 0.00 0.00 55 1017.1
20260506222904 83 45 0.0 0.0 0.00 0.00 0.00 55 1017.0
20260506222354 84 45 0.9 0.0 0.00 0.00 0.00 55 1017.0
20260506221843 84 45 0.0 0.0 0.00 0.00 0.00 55 1017.0
20260506221332 84 45 0.0 0.0 0.00 0.00 0.00 54 1016.9
20260506220822 84 45 0.9 0.0 0.00 0.00 0.00 54 1016.8
20260506220312 84 45 0.0 0.0 0.00 0.00 0.00 54 1016.8
20260506215802 84 45 0.0 0.0 0.00 0.00 0.00 54 1016.8
20260506215252 84 45 0.9 0.0 0.00 0.00 0.00 54 1016.9
20260506214742 84 45 7.8 0.0 0.00 0.00 0.00 54 1017.0
20260506214231 84 45 3.5 0.0 0.00 0.00 0.00 54 1017.1
20260506213721 84 45 4.3 0.0 0.00 0.00 0.00 54 1017.0
20260506213211 85 45 0.0 0.0 0.00 0.00 0.00 54 1017.0
20260506212700 85 45 0.0 0.0 0.00 0.00 0.00 54 1016.9
20260506212150 85 45 2.6 0.0 0.00 0.00 0.00 54 1016.8
20260506211640 85 45 0.0 0.0 0.00 0.00 0.00 54 1016.8
20260506211129 85 45 0.0 0.0 0.00 0.00 0.00 54 1016.8
20260506210618 85 45 0.0 0.0 0.00 0.00 0.00 54 1016.7
20260506210108 85 45 0.0 0.0 0.00 0.00 0.00 54 1016.7
20260506205557 86 45 0.0 0.0 0.00 0.00 0.00 54 1016.6
20260506205046 86 45 2.6 0.0 0.00 0.00 0.00 54 1016.7
20260506204535 86 45 0.0 0.0 0.00 0.00 0.00 54 1016.5
20260506204025 86 45 0.0 0.0 0.00 0.00 0.00 54 1016.5
20260506203515 86 45 0.0 0.0 0.00 0.00 0.00 54 1016.5
20260506203004 86 45 0.9 0.0 0.00 0.00 0.00 54 1016.6
20260506202453 86 45 0.0 0.0 0.00 0.00 0.00 54 1016.4
20260506201943 86 45 0.0 0.0 0.00 0.00 0.00 54 1016.4
20260506201433 86 45 0.0 0.0 0.00 0.00 0.00 54 1016.3
20260506200922 87 45 0.0 0.0 0.00 0.00 0.00 53 1016.3
20260506200412 87 45 0.0 0.0 0.00 0.00 0.00 53 1016.3
20260506195901 87 45 0.0 0.0 0.00 0.00 0.00 53 1016.4
20260506195350 87 45 0.0 0.0 0.00 0.00 0.00 53 1016.4
20260506194839 87 45 0.0 0.0 0.00 0.00 0.00 52 1016.3
20260506194329 87 45 0.0 0.0 0.00 0.00 0.00 52 1016.4
20260506193818 87 45 0.0 0.0 0.00 0.00 0.00 52 1016.3
20260506193308 87 45 0.0 0.0 0.00 0.00 0.00 51 1016.3
20260506192757 87 45 0.0 0.0 0.00 0.00 0.00 51 1016.3
20260506192247 87 45 0.0 0.0 0.00 0.00 0.00 50 1016.4